Location: Newark
(10.3333°N, 37.7167°E)
Time: 15:00:00
(UTC+00:00)

STARLINK-1086 - Pass Details

Date: 04 February 2020
Orbit: 348 x 351 km, 53.0° (Epoch: 23 February)

Event Time Altitude Azimuth Distance (km) Brightness Sun altitude
Rises 17:21:52 0° 309° (NW) 2,136 7.1 -26.4°
Reaches altitude 10° 17:24:02 10° 296° (WNW) 1,296 6.1 -26.9°
Enters shadow 17:24:11 11° 294° (WNW) 1,245 6.1 -27.0°
